Flag for U.S.A. Weather past 2 weeks in St. Petersburg, Florida, U.S.A.

Now
57 °F

Clear.


Feels Like: 57 °F
Forecast: 55 / 68 °F
Wind: No wind

Location: Whitted Airport

Current Time: Jan 30, 2015 at 3:11:37 AM

Latest Report: Jan 30, 2015 at 2:53 AM


Visibility: 10 mi

Pressure: 30.19 "Hg

Humidity: 90%

Dew point: 54 °F

Location of St. PetersburgLocation

Historic Weather in St. Petersburg — Graph

°F

St. Petersburg temperature yesterday

Maximum temperature yesterday: 69 °F (at 3:53 PM)
Minimum temperature yesterday: 51 °F (at 6:53 AM)
Average temperature yesterday: 59 °F

Past Weeks' High & Low Weather Summary

 TemperatureHumidityPressure
High77 °F (Jan 23, 1:53 PM)96% (Jan 15, 2:01 AM)30.32 "Hg (Jan 15, 2:01 AM)
Low51 °F (Jan 29, 6:53 AM)30% (Jan 19, 5:53 PM)29.82 "Hg (Jan 24, 3:53 AM)
Average62 °F73%30.07 "Hg
* Reported Jan 15 2:01 AM — Jan 30 1:53 AM, St. Petersburg, Weather by CustomWeather, © 2014

Note: Actual official high and low records may vary slightly from our data, if they occured in-between our weather recording intervals... More about our weather records

Advertising

St. Petersburg weather history for previous 24 hours

 ConditionsComfort  
Time TempWeatherWind HumidityBarometerVisibility
1:53 AM
Jan 30
57 °FClear.No wind87%30.20 "Hg10 mi
12:53 AM58 °FClear.3 mph84%30.22 "Hg10 mi
11:53 PM
Jan 29
58 °FClear.5 mph84%30.23 "Hg10 mi
10:53 PM58 °FClear.3 mph84%30.23 "Hg10 mi
9:53 PM59 °FClear.6 mph78%30.24 "Hg10 mi
8:53 PM60 °FClear.8 mph72%30.24 "Hg10 mi
7:53 PM62 °FClear.8 mph60%30.24 "Hg10 mi
6:53 PM65 °FClear.6 mph52%30.22 "Hg10 mi
5:53 PM67 °FSunny.5 mph49%30.21 "Hg10 mi
4:53 PM69 °FSunny.No wind51%30.21 "Hg10 mi
3:53 PM69 °FSunny.No wind42%30.20 "Hg10 mi
2:53 PM68 °FSunny.3 mph51%30.20 "Hg10 mi
1:53 PM66 °FSunny.5 mph54%30.23 "Hg10 mi
12:53 PM64 °FSunny.7 mph61%30.26 "Hg10 mi
11:53 AM62 °FSunny.8 mph62%30.29 "Hg10 mi
10:53 AM59 °FSunny.9 mph64%30.31 "Hg10 mi
9:53 AM57 °FSunny.12 mph67%30.32 "Hg10 mi
8:53 AM54 °FSunny.10 mph72%30.31 "Hg10 mi
7:53 AM51 °FSunny.9 mph74%30.30 "Hg10 mi
6:53 AM51 °FClear.9 mph74%30.28 "Hg10 mi
5:53 AM52 °FClear.12 mph69%30.26 "Hg10 mi
4:53 AM52 °FClear.16 mph66%30.26 "Hg10 mi
3:53 AM52 °FClear.15 mph69%30.26 "Hg10 mi
Weather by CustomWeather, © 2014

See weather overviewHow to use our weather pages